Owen Roberts, Cayman Islands

10:28 PM EST on April 29, 2017 (GMT -0500)
Roberts International

Weather History for MWCR - September, 2013

Change the Weather History Date:

Monday, September 30, 2013

  Actual Average Record
Temperature  
Mean Temperature 84 °F -  
Max Temperature 88 °F 85 °F 91 °F (2003)
Min Temperature 79 °F 77 °F 74 °F (2014)
Cooling Degree Days 18    
Growing Degree Days 34 (Base 50)    
Moisture  
Dew Point 78 °F    
Average Humidity 81    
Maximum Humidity 89    
Minimum Humidity 74    
Precipitation  
Precipitation 0.28 in - - ()
Sea Level Pressure  
Sea Level Pressure 29.88 in    
Wind  
Wind Speed 4 mph ()    
Max Wind Speed 12 mph    
Max Gust Speed -    
Visibility 6.2 miles    
Events Rain    
Averages and records for this station are not official NWS values.
T = Trace of Precipitation, MM = Missing Value Source: Averaged Metar Reports

Daily Weather History Graph

Daily Weather History Graph

Search for Another Location

Airport or City:

Trip Planner

Search our weather history database for the weather conditions in past years. The results will help you decide how hot, cold, wet, or windy it might be!

Date:

Astronomy

Sep. 30, 2013 Rise Set
Actual Time 6:15 AM EST 6:14 PM EST
Civil Twilight 5:54 AM EST 6:36 PM EST
Nautical Twilight 5:28 AM EST 7:01 PM EST
Astronomical Twilight 5:03 AM EST 7:27 PM EST
Moon 2:22 AM EST 3:17 PM EST
Length of Visible Light 12h 42m
Length of Day
11h 58m
Waning Crescent, 19% of the Moon is Illuminated
Sep 30
Waning Crescent
Oct 4
New
Oct 11
First Quarter
Oct 18
Full
Oct 26
Last Quarter

Hourly Weather History & Observations

Time (EST) Temp. Heat Index Dew Point Humidity Pressure Visibility Wind Dir Wind Speed Gust Speed Precip Events Conditions
6:20 AM 80.6 °F 87.1 °F 77.0 °F 89% 29.86 in 6.2 mi East 3.5 mph - N/A   Partly Cloudy
7:00 AM 82 °F - 77 °F 81% 29.89 in 6 mi East 3.5 mph - -   Partly Cloudy
7:00 AM 82.4 °F 90.9 °F 77.0 °F 84% 29.89 in 6.2 mi East 3.5 mph - N/A   Partly Cloudy
8:00 AM 86.0 °F 96.9 °F 77.0 °F 74% 29.89 in 6.2 mi East 5.8 mph - N/A   Partly Cloudy
9:00 AM 86.0 °F 99.3 °F 78.8 °F 79% 29.89 in 6.2 mi East 6.9 mph - N/A   Partly Cloudy
10:00 AM 87.8 °F 102.5 °F 78.8 °F 75% 29.92 in 6.2 mi ENE 6.9 mph - N/A   Scattered Clouds
11:00 AM 86.0 °F 99.3 °F 78.8 °F 79% 29.92 in 6.2 mi NE 11.5 mph - N/A   Scattered Clouds
12:00 PM 82.4 °F 92.4 °F 78.8 °F 89% 29.89 in 6.2 mi East 4.6 mph - N/A Rain Light Rain Showers
1:00 PM 82 °F - 78 °F 85% 29.88 in 6 mi SW 3.5 mph - - Rain Light Rain Showers
1:00 PM 82.4 °F 92.4 °F 78.8 °F 89% 29.86 in 6.2 mi Variable 3.5 mph - N/A Rain Light Rain Showers
2:00 PM 82.4 °F 92.4 °F 78.8 °F 89% 29.86 in 6.2 mi ESE 3.5 mph - N/A   Scattered Clouds
3:00 PM 87.8 °F 102.5 °F 78.8 °F 75% 29.83 in 6.2 mi SE 5.8 mph - N/A   Scattered Clouds
4:00 PM 86.0 °F 96.9 °F 77.0 °F 74% 29.83 in 6.2 mi East 4.6 mph - N/A   Scattered Clouds
5:00 PM 86.0 °F 96.9 °F 77.0 °F 74% 29.83 in 6.2 mi ESE 6.9 mph - N/A   Scattered Clouds
6:00 PM 84.2 °F 94.1 °F 77.0 °F 79% 29.86 in 6.2 mi ESE 6.9 mph - N/A   Scattered Clouds
7:00 PM 83 °F - 77 °F 79% 29.88 in 6 mi East 5.8 mph - -   Partly Cloudy
7:00 PM 82.4 °F 90.9 °F 77.0 °F 84% 29.86 in 6.2 mi East 5.8 mph - N/A   Scattered Clouds
8:00 PM 82.4 °F 90.9 °F 77.0 °F 84% 29.89 in 6.2 mi ESE 3.5 mph - N/A   Scattered Clouds
10:00 PM 82.4 °F 90.9 °F 77.0 °F 84% 29.92 in 6.2 mi ESE 3.5 mph - N/A   Partly Cloudy